Total_Precipitation_Accumulation
0.01 0.02 0.05 0.05 0.05 0.06 0.08 0.12 0.19 0.30 0.24 0.21 0.34 0.56 0.67 0.71 0.76 0.92 1.08 1.07 1.13 1.24 1.63 2.10 2.62 3.13 3.79 4.69 5.61 5.96 5.73 5.16 4.71 4.29 3.81 3.43 3.11 2.86 2.74 2.44 2.12 2.03 1.95 1.91
0.03 0.04 0.03 0.03 0.04 0.07 0.10 0.14 0.19 0.26 0.20 0.22 0.36 0.59 0.78 0.88 0.97 0.93 0.98 1.09 1.05 1.25 1.68 2.21 2.80 3.21 3.53 4.05 4.79 5.08 4.76 4.13 3.54 3.26 3.11 2.93 2.83 2.51 2.33 2.24 2.14 1.86 1.85 1.83
0.03 0.05 0.03 0.03 0.04 0.08 0.11 0.13 0.19 0.23 0.16 0.24 0.39 0.77 1.05 1.11 0.91 0.73 0.66 0.79 0.81 0.98 1.50 2.24 2.77 3.06 3.31 3.51 3.50 3.60 3.51 3.02 2.67 2.58 2.57 2.52 2.60 2.42 2.19 2.07 1.94 1.69 1.61 1.53
0.03 0.03 0.02 0.03 0.05 0.07 0.11 0.09 0.09 0.12 0.16 0.36 0.47 1.08 1.33 1.15 0.99 0.77 0.62 0.63 0.66 0.87 1.34 2.10 2.39 2.51 2.54 2.63 2.43 2.42 2.51 2.34 2.28 2.19 2.22 2.10 1.96 1.92 1.84 1.85 1.80 1.69 1.56 1.48
0.04 0.03 0.02 0.03 0.05 0.08 0.11 0.08 0.08 0.12 0.18 0.36 0.57 0.97 1.35 1.21 1.12 0.82 0.62 0.58 0.68 0.76 1.03 1.38 1.46 1.58 1.66 1.73 1.76 1.93 2.20 2.23 2.11 2.04 2.16 2.18 1.90 1.74 1.67 1.69 1.77 1.68 1.56 1.46
0.05 0.05 0.04 0.03 0.04 0.06 0.08 0.11 0.16 0.29 0.44 0.76 0.77 0.90 1.34 1.18 0.92 0.66 0.55 0.56 0.51 0.53 0.72 0.92 0.98 1.03 1.10 1.16 1.28 1.49 1.90 2.10 1.95 1.89 1.95 1.93 1.86 1.79 1.67 1.58 1.61 1.60 1.55 1.54
0.10 0.09 0.09 0.07 0.07 0.08 0.09 0.13 0.36 0.75 1.17 1.26 0.78 0.88 1.21 0.82 0.57 0.43 0.37 0.40 0.43 0.55 0.64 0.75 0.91 0.96 0.88 0.85 0.98 1.19 1.49 1.61 1.57 1.62 1.74 1.82 1.88 1.82 1.66 1.59 1.52 1.51 1.42 1.48
0.15 0.16 0.12 0.08 0.06 0.08 0.10 0.12 0.26 0.47 0.61 0.73 0.73 1.16 1.26 0.70 0.46 0.35 0.32 0.33 0.44 0.52 0.49 0.52 0.62 0.64 0.62 0.69 0.77 0.94 1.10 1.17 1.26 1.37 1.55 1.68 1.70 1.70 1.65 1.71 1.59 1.48 1.36 1.34
0.07 0.07 0.06 0.05 0.06 0.07 0.08 0.09 0.11 0.14 0.21 0.50 0.83 1.08 0.97 0.63 0.43 0.33 0.33 0.31 0.40 0.41 0.36 0.35 0.37 0.39 0.45 0.61 0.72 0.79 0.89 1.00 1.10 1.21 1.42 1.56 1.58 1.55 1.57 1.64 1.58 1.42 1.42 1.37
0.04 0.03 0.04 0.05 0.06 0.07 0.09 0.09 0.08 0.10 0.22 0.46 0.79 1.14 1.14 0.82 0.63 0.53 0.40 0.32 0.36 0.35 0.30 0.32 0.31 0.30 0.31 0.38 0.54 0.68 0.76 0.92 1.08 1.16 1.19 1.26 1.42 1.40 1.37 1.32 1.30 1.37 1.39 1.38
0.03 0.03 0.04 0.06 0.07 0.08 0.08 0.08 0.08 0.09 0.11 0.25 0.61 0.92 0.76 0.63 0.51 0.53 0.47 0.41 0.37 0.35 0.33 0.29 0.33 0.34 0.32 0.35 0.46 0.59 0.66 0.78 0.90 0.92 0.94 1.07 1.17 1.18 1.14 1.13 1.11 1.21 1.24 1.28
0.04 0.05 0.05 0.08 0.09 0.09 0.08 0.07 0.09 0.11 0.12 0.15 0.32 0.52 0.41 0.42 0.41 0.47 0.49 0.51 0.50 0.50 0.47 0.41 0.43 0.40 0.41 0.41 0.43 0.53 0.54 0.57 0.64 0.70 0.77 0.88 1.00 1.00 1.00 1.03 1.17 1.25 1.22 1.16
0.04 0.05 0.08 0.18 0.22 0.17 0.10 0.08 0.11 0.12 0.12 0.14 0.33 0.54 0.36 0.38 0.45 0.46 0.43 0.53 0.55 0.47 0.51 0.61 0.59 0.45 0.43 0.39 0.43 0.48 0.47 0.52 0.59 0.65 0.67 0.73 0.86 0.98 1.04 1.10 1.17 1.25 1.27 1.22
0.05 0.06 0.07 0.18 0.24 0.23 0.18 0.14 0.14 0.14 0.14 0.14 0.23 0.43 0.38 0.37 0.46 0.50 0.40 0.46 0.54 0.51 0.52 0.66 0.72 0.50 0.42 0.42 0.46 0.47 0.47 0.45 0.45 0.53 0.62 0.71 0.84 1.02 1.14 1.18 1.25 1.31 1.35 1.31
0.07 0.07 0.06 0.06 0.12 0.18 0.20 0.17 0.14 0.12 0.12 0.17 0.23 0.35 0.43 0.50 0.52 0.46 0.47 0.50 0.50 0.54 0.53 0.51 0.55 0.49 0.47 0.48 0.47 0.51 0.53 0.52 0.51 0.64 0.73 0.81 0.95 1.03 1.11 1.25 1.35 1.44 1.46 1.39
0.10 0.09 0.07 0.07 0.12 0.14 0.15 0.18 0.13 0.09 0.09 0.14 0.24 0.38 0.46 0.47 0.56 0.56 0.51 0.47 0.50 0.57 0.59 0.66 0.67 0.63 0.63 0.61 0.57 0.58 0.63 0.65 0.75 0.88 0.95 1.01 1.08 1.16 1.19 1.25 1.29 1.42 1.47 1.53
0.17 0.17 0.17 0.15 0.16 0.17 0.18 0.17 0.13 0.12 0.15 0.19 0.25 0.38 0.48 0.54 0.64 0.71 0.72 0.60 0.57 0.68 0.72 0.82 0.87 0.85 0.84 0.78 0.72 0.72 0.76 0.85 0.99 1.13 1.30 1.33 1.31 1.36 1.37 1.39 1.39 1.43 1.58 1.68
0.26 0.27 0.23 0.21 0.25 0.31 0.23 0.19 0.17 0.16 0.18 0.21 0.33 0.46 0.58 0.66 0.67 0.77 0.88 0.79 0.68 0.66 0.73 0.87 0.98 0.98 0.90 0.90 0.93 1.02 1.05 1.11 1.24 1.34 1.48 1.60 1.63 1.69 1.73 1.79 1.77 1.79 1.83 1.92
0.28 0.37 0.36 0.34 0.40 0.37 0.31 0.27 0.24 0.26 0.35 0.36 0.47 0.68 0.78 0.79 0.87 1.01 0.94 0.82 0.78 0.80 0.83 1.00 1.01 0.99 0.98 1.10 1.16 1.18 1.23 1.29 1.46 1.62 1.74 1.84 1.90 1.93 1.94 1.94 2.03 2.11 2.22 2.24
0.34 0.36 0.45 0.42 0.48 0.52 0.49 0.41 0.39 0.49 0.90 0.76 0.75 0.76 0.77 0.82 1.08 1.11 0.85 0.76 0.77 0.81 0.96 1.08 1.12 1.10 1.17 1.40 1.46 1.49 1.54 1.60 1.67 1.72 1.84 2.02 2.13 2.18 2.15 2.16 2.30 2.44 2.56 2.53
0.58 0.59 0.54 0.50 0.56 0.58 0.56 0.49 0.55 1.01 1.41 1.17 1.05 0.98 0.98 1.13 1.13 1.10 0.95 0.82 0.79 0.82 0.92 1.05 1.09 1.12 1.20 1.40 1.56 1.78 1.93 1.95 1.93 1.98 2.02 2.06 2.18 2.33 2.36 2.42 2.47 2.61 2.71 2.69
0.83 0.85 0.82 0.77 0.90 0.94 0.62 0.64 0.97 1.26 1.11 1.21 1.33 1.36 1.31 1.29 1.11 0.99 0.92 0.89 0.84 0.83 0.88 1.00 1.15 1.21 1.30 1.46 1.71 1.91 2.07 2.20 2.26 2.23 2.32 2.32 2.31 2.25 2.23 2.43 2.57 2.68 2.80 2.76
1.00 1.02 1.03 1.06 1.18 1.06 0.81 0.89 0.95 0.93 1.06 1.17 1.26 1.39 1.45 1.41 1.40 1.21 1.12 1.09 1.02 0.93 0.91 0.97 1.07 1.21 1.30 1.39 1.60 1.96 2.07 2.09 2.11 2.17 2.20 2.27 2.29 2.29 2.30 2.44 2.60 2.75 2.78 2.70
1.03 0.97 1.08 1.24 1.31 1.18 1.09 1.09 1.10 1.08 1.15 1.18 1.23 1.31 1.38 1.39 1.46 1.36 1.22 1.11 1.03 0.98 0.96 1.00 1.06 1.16 1.25 1.21 1.33 1.52 1.72 1.83 1.84 1.83 1.86 1.87 1.99 2.10 2.26 2.43 2.48 2.56 2.64 2.64
1.11 1.05 1.14 1.48 1.64 1.61 1.50 1.45 1.37 1.29 1.38 1.48 1.44 1.41 1.44 1.35 1.32 1.29 1.11 1.01 0.96 0.94 0.91 0.97 1.07 1.06 1.10 1.17 1.17 1.20 1.26 1.46 1.60 1.62 1.64 1.71 1.81 1.92 2.09 2.31 2.45 2.39 2.41 2.56
1.39 1.28 1.27 1.55 1.61 1.77 1.79 1.60 1.48 1.39 1.50 1.54 1.49 1.40 1.34 1.29 1.27 1.16 1.02 0.93 0.91 0.89 0.89 0.94 1.02 1.01 1.00 1.07 1.09 1.12 1.25 1.43 1.53 1.48 1.48 1.51 1.54 1.64 1.77 1.93 2.06 2.04 1.81 1.84